Cairns, Australia

2:45 PM AEST on August 17, 2017 (GMT +1000)
Cairns International

Weather History for YBCS - October, 2012

Change the Weather History Date:

Saturday, October 27, 2012

  Actual Average Record
Temperature  
Mean Temperature 74 °F -  
Max Temperature 84 °F 87 °F 89 °F (1999)
Min Temperature 63 °F 72 °F 63 °F (2012)
Cooling Degree Days 8    
Growing Degree Days 24 (Base 50)    
Moisture  
Dew Point 66 °F    
Average Humidity 73    
Maximum Humidity 100    
Minimum Humidity 41    
Precipitation  
Precipitation 0.00 in 0.12 in - ()
Sea Level Pressure  
Sea Level Pressure 29.82 in    
Wind  
Wind Speed 3 mph ()    
Max Wind Speed 10 mph    
Max Gust Speed -    
Visibility 8.0 miles    
Events Fog    
Averages and records for this station are not official NWS values.
T = Trace of Precipitation, MM = Missing Value Source: Averaged Metar Reports

Daily Weather History Graph

Daily Weather History Graph

Search for Another Location

Airport or City:

Trip Planner

Search our weather history database for the weather conditions in past years. The results will help you decide how hot, cold, wet, or windy it might be!

Date:

Astronomy

Oct. 27, 2012 Rise Set
Actual Time 5:41 AM AEST 6:20 PM AEST
Civil Twilight 5:19 AM AEST 6:42 PM AEST
Nautical Twilight 4:53 AM AEST 7:08 PM AEST
Astronomical Twilight 4:26 AM AEST 7:35 PM AEST
Moon 4:14 PM AEST (10/27) 3:39 AM AEST (10/27)
Length of Visible Light 13h 23m
Length of Day
12h 38m
Waxing Gibbous, 93% of the Moon is Illuminated
Oct 27
Waxing Gibbous
Oct 30
Full
Nov 7
Last Quarter
Nov 14
New
Nov 21
First Quarter

Hourly Weather History & Observations

Time (AEST) Temp. Heat Index Dew Point Humidity Pressure Visibility Wind Dir Wind Speed Gust Speed Precip Events Conditions
12:00 AM 67 °F - 64 °F 88% 29.86 in - Calm Calm - -  
12:00 AM 66.2 °F - 64.4 °F 94% 29.86 in - Calm Calm - N/A   Clear
12:30 AM 66.2 °F - 64.4 °F 94% 29.83 in - Calm Calm - N/A   Clear
1:00 AM 66 °F - 64 °F 90% 29.85 in - Calm Calm - -  
1:00 AM 66.2 °F - 64.4 °F 94% 29.83 in - Calm Calm - N/A   Clear
1:30 AM 66.2 °F - 64.4 °F 94% 29.83 in - Calm Calm - N/A   Clear
2:00 AM 64.4 °F - 64.4 °F 100% 29.83 in - Calm Calm - N/A   Clear
2:30 AM 64.4 °F - 62.6 °F 94% 29.80 in 6.2 mi Calm Calm - N/A Fog Shallow Fog
3:00 AM 65 °F - 64 °F 94% 29.81 in - Calm Calm - -  
3:00 AM 66.2 °F - 64.4 °F 94% 29.80 in - Calm Calm - N/A   Clear
3:30 AM 64.4 °F - 62.6 °F 94% 29.80 in - Calm Calm - N/A   Clear
4:00 AM 66 °F - 64 °F 89% 29.82 in - SW 2.3 mph - -  
4:00 AM 66.2 °F - 64.4 °F 94% 29.80 in - SW 2.3 mph - N/A   Clear
4:30 AM 66.2 °F - 62.6 °F 88% 29.80 in - South 2.3 mph - N/A   Clear
5:00 AM 64.4 °F - 62.6 °F 94% 29.83 in - Calm Calm - N/A   Clear
5:30 AM 64.4 °F - 62.6 °F 94% 29.83 in - Calm Calm - N/A   Clear
6:00 AM 64 °F - 62 °F 93% 29.83 in 19 mi Calm Calm - -   Partly Cloudy
6:00 AM 64.4 °F - 62.6 °F 94% 29.83 in - Calm Calm - N/A   Clear
6:30 AM 66.2 °F - 64.4 °F 94% 29.83 in - Calm Calm - N/A   Clear
7:00 AM 70 °F - 64 °F 75% 29.85 in - SE 5.8 mph - -  
7:00 AM 69.8 °F - 64.4 °F 83% 29.83 in - SE 5.8 mph - N/A   Clear
7:30 AM 73.4 °F - 62.6 °F 69% 29.83 in - WSW 3.5 mph - N/A   Clear
8:00 AM 75.2 °F - 62.6 °F 65% 29.83 in - NW 1.2 mph - N/A   Clear
8:30 AM 80.6 °F 81.1 °F 59.0 °F 48% 29.83 in - NW 1.2 mph - N/A   Clear
9:00 AM 80 °F - 61 °F 41% 29.83 in 19 mi NE 6.9 mph - -   Partly Cloudy
9:00 AM 80.6 °F 81.5 °F 60.8 °F 51% 29.83 in - NNE 6.9 mph - N/A   Clear
9:30 AM 82.4 °F 83.4 °F 62.6 °F 51% 29.83 in - NE 8.1 mph - N/A   Clear
10:00 AM 81 °F - 65 °F 49% 29.83 in - NE 9.2 mph - -  
10:00 AM 80.6 °F 82.3 °F 64.4 °F 58% 29.80 in - NE 9.2 mph - N/A   Clear
10:30 AM 82.4 °F 84.6 °F 66.2 °F 58% 29.80 in - NNE 9.2 mph - N/A   Clear
11:00 AM 80.6 °F 82.7 °F 66.2 °F 61% 29.80 in - NNE 10.4 mph - N/A   Clear
11:30 AM 80.6 °F 82.7 °F 66.2 °F 61% 29.80 in 6.2 mi North 10.4 mph - N/A   Partly Cloudy
12:00 PM 82 °F - 65 °F 46% 29.80 in 19 mi NNE 10.4 mph - -   Partly Cloudy
12:00 PM 82.4 °F 83.9 °F 64.4 °F 54% 29.80 in 6.2 mi NNE 10.4 mph - N/A   Partly Cloudy
12:30 PM 84.2 °F 86.6 °F 66.2 °F 55% 29.77 in 6.2 mi NNE 10.4 mph - N/A   Partly Cloudy
1:00 PM 81 °F - 68 °F 56% 29.79 in - North 10.4 mph - -  
1:00 PM 80.6 °F 83.2 °F 68.0 °F 65% 29.77 in 6.2 mi North 10.4 mph - N/A   Partly Cloudy
1:30 PM 84.2 °F 87.3 °F 68.0 °F 58% 29.77 in 6.2 mi NNE 10.4 mph - N/A   Partly Cloudy
2:00 PM 80.6 °F 83.2 °F 68.0 °F 65% 29.77 in 6.2 mi NNE 9.2 mph - N/A   Partly Cloudy
2:30 PM 80.6 °F 83.2 °F 68.0 °F 65% 29.77 in 6.2 mi NE 9.2 mph - N/A   Partly Cloudy
3:00 PM 80 °F - 69 °F 62% 29.77 in 19 mi NE 8.1 mph - -   Partly Cloudy
3:00 PM 78.8 °F - 69.8 °F 74% 29.77 in 6.2 mi NE 8.1 mph - N/A   Scattered Clouds
3:30 PM 80.6 °F 83.2 °F 68.0 °F 65% 29.77 in 6.2 mi NE 9.2 mph - N/A   Mostly Cloudy
4:00 PM 80 °F - 68 °F 59% 29.77 in - NE 9.2 mph - -  
4:00 PM 80.6 °F 83.2 °F 68.0 °F 65% 29.74 in 6.2 mi NE 9.2 mph - N/A   Mostly Cloudy
4:30 PM 80.6 °F 83.2 °F 68.0 °F 65% 29.77 in 6.2 mi ENE 8.1 mph - N/A   Mostly Cloudy
5:00 PM 78.8 °F - 68.0 °F 69% 29.77 in 6.2 mi NE 8.1 mph - N/A   Mostly Cloudy
5:30 PM 78.8 °F - 68.0 °F 69% 29.80 in 6.2 mi ENE 6.9 mph - N/A   Mostly Cloudy
6:00 PM 78 °F - 68 °F 65% 29.81 in - ENE 6.9 mph - -  
6:00 PM 78.8 °F - 68.0 °F 69% 29.80 in 6.2 mi ENE 6.9 mph - N/A   Mostly Cloudy
6:30 PM 77.0 °F - 68.0 °F 74% 29.80 in 6.2 mi ENE 8.1 mph - N/A   Mostly Cloudy
7:00 PM 78 °F - 68 °F 64% 29.83 in - ENE 6.9 mph - -  
7:00 PM 77.0 °F - 68.0 °F 74% 29.83 in 6.2 mi ENE 6.9 mph - N/A   Mostly Cloudy
7:30 PM 77.0 °F - 68.0 °F 74% 29.83 in 6.2 mi ENE 6.9 mph - N/A   Mostly Cloudy
8:00 PM 77.0 °F - 68.0 °F 74% 29.83 in 6.2 mi ENE 5.8 mph - N/A   Scattered Clouds
8:30 PM 77.0 °F - 68.0 °F 74% 29.86 in 6.2 mi ENE 2.3 mph - N/A   Partly Cloudy
9:00 PM 76 °F - 68 °F 69% 29.86 in - ENE 1.2 mph - -  
9:00 PM 75.2 °F - 68.0 °F 78% 29.86 in 6.2 mi ENE 1.2 mph - N/A   Mostly Cloudy
9:30 PM 77.0 °F - 68.0 °F 74% 29.86 in 6.2 mi Calm Calm - N/A   Mostly Cloudy
10:00 PM 77 °F - 67 °F 64% 29.89 in - Calm Calm - -  
10:00 PM 77.0 °F - 66.2 °F 69% 29.89 in 6.2 mi Calm Calm - N/A   Mostly Cloudy
10:30 PM 75.2 °F - 68.0 °F 78% 29.89 in 6.2 mi SE 5.8 mph - N/A   Mostly Cloudy
11:00 PM 75.2 °F - 68.0 °F 78% 29.86 in 6.2 mi ESE 6.9 mph - N/A   Mostly Cloudy